#timestamp,LO_Frequency,Hit,StdDev 
1623888015.7,286047001.1,N
1623888035.6,286047001.2,N
1623888055.4,286046998.8,N
1623888075.2,286046998.9,N
1623888095.1,286046997.2,N
1623888096.0,286046997.2,N
1623888115.8,286046997.1,N
1623888135.7,286046997.7,N
1623888155.5,286046998.3,N
1623888175.3,286047000.9,N
1623888195.2,286047002.1,N
1623888215.0,286047001.9,N
1623888215.9,286047001.9,N
1623888235.7,286047003.1,N
1623888255.6,286047003.6,N
1623888275.4,286047006.0,Y
1623888295.3,286047003.9,P
1623888315.1,286047005.5,N
1623888335.8,286047003.2,N
1623888355.7,286047003.8,N
1623888375.5,286047004.2,N
1623888395.3,286047002.4,N
1623888415.2,286046999.9,N
1623888435.0,286047001.5,N
1623888435.9,286047001.5,N
1623888455.8,286047003.6,N
1623888475.6,286047003.1,N
1623888495.4,286047004.0,N
1623888515.3,286047002.5,N
1623888535.1,286047002.2,N
1623888555.9,286047002.6,N
1623888575.7,286047001.9,N
1623888595.5,286047003.2,N
1623888615.4,286047004.4,Y
1623888635.2,286046998.9,P
1623888655.0,286046999.8,N
1623888655.9,286046999.8,N
1623888675.8,286047002.3,N
1623888695.6,286047000.1,N
1623888715.5,286047000.2,N
1623888735.3,286047002.2,N
1623888755.1,286047002.6,N
1623888775.9,286047000.0,N
1623888795.7,286047000.0,N
1623888815.5,286047001.7,N
1623888835.4,286047003.0,N
1623888855.2,286047003.8,N
1623888875.1,286047003.5,N
1623888876.0,286047003.5,N
1623888895.8,286047005.9,Y
1623888915.6,286047004.1,P
1623888935.5,286047000.2,N
1623888955.3,286047000.5,N
1623888975.1,286047000.7,N
1623888995.9,286047001.2,N
1623889015.7,286047000.8,N
1623889035.6,286046998.2,N
1623889055.4,286047000.9,N
1623889075.2,286047000.4,N
1623889095.1,286047000.5,N
1623889096.0,286047000.5,N
1623889115.8,286047000.0,N
1623889135.7,286047001.7,N
1623889155.5,286047000.9,N
1623889175.3,286047000.9,N
1623889195.2,286047000.3,N
1623889215.0,286046999.9,N
1623889215.9,286046999.9,N
1623889235.7,286047002.0,N
1623889255.6,286047002.4,N
1623889275.4,286046999.1,N
1623889295.3,286047001.2,N
1623889315.1,286047000.4,N
1623889335.8,286047000.3,N
1623889355.7,286047002.4,N
1623889375.5,286047000.1,N
1623889395.4,286047000.1,N
1623889415.2,286047000.0,N
1623889435.0,286047001.2,N
1623889435.9,286047001.2,N
1623889455.8,286047000.3,N
1623889475.6,286047000.4,N
1623889495.5,286047002.3,N
1623889515.3,286047001.1,N
1623889535.1,286046998.2,N
1623889555.9,286046999.9,N
1623889575.7,286047002.4,N
1623889595.6,286046999.7,N
1623889615.4,286047004.4,Y
1623889635.2,286047001.4,P
1623889655.1,286047000.6,N
1623889656.0,286047000.6,N
1623889675.8,286046999.8,N
1623889695.7,286046999.7,N
1623889715.7,286046999.8,N
1623889735.5,286047004.3,Y
1623889755.4,286047001.3,P
1623889775.2,286047002.1,P
1623889795.0,286046999.9,N
1623889795.9,286046999.9,N
1623889815.8,286047000.4,N
1623889835.6,286047000.9,N
1623889855.5,286047001.1,N
1623889875.3,286047000.7,N
1623889895.1,286046999.8,N
1623889915.9,286047002.3,Y
1623889935.7,286047002.8,P
1623889955.6,286047000.3,N
1623889975.4,286047001.1,N
1623889995.2,286047000.3,N
1623890015.1,286046998.3,N
1623890016.0,286046998.3,N
1623890035.8,286046998.2,N
1623890055.7,286046998.5,N
1623890075.5,286047000.7,N
1623890095.3,286047001.0,N
1623890115.2,286046998.9,N
1623890135.0,286046998.7,N
1623890135.9,286046998.7,N
1623890155.7,286046998.7,N
1623890175.6,286046998.3,N
1623890195.4,286047001.0,N
1623890215.3,286047000.8,N
1623890235.1,286046998.4,N
1623890236.0,286046998.4,N
1623890255.8,286046998.6,N
1623890275.7,286047000.3,N
1623890295.5,286046998.1,N
1623890315.4,286046998.5,N
1623890335.2,286047001.1,N
1623890355.0,286047000.5,N
1623890355.9,286047000.5,N
1623890375.8,286046998.3,N
1623890395.6,286046998.8,N
1623890415.4,286046999.1,N
1623890435.3,286046999.0,N
1623890455.1,286046998.4,N
1623890475.9,286047000.0,N
1623890495.7,286046999.8,N
1623890515.5,286047002.7,N
1623890535.4,286047002.1,N
1623890555.2,286047001.5,N
1623890575.1,286047001.8,N
1623890576.0,286047001.8,N
1623890595.8,286047001.3,N
1623890615.6,286047001.5,N
1623890635.5,286047004.4,Y
1623890655.3,286047001.7,P
1623890675.1,286046999.8,N
1623890695.9,286046998.5,N
1623890715.7,286046999.3,N
1623890735.6,286046999.1,N
1623890755.4,286046997.7,N
1623890775.2,286046996.9,N
1623890795.1,286046999.5,N
1623890796.0,286046999.5,N
1623890815.8,286046997.0,N
1623890835.6,286046996.7,N
1623890855.5,286046999.1,N
1623890875.3,286046998.7,N
1623890895.2,286046998.4,N
1623890915.9,286046999.4,N
1623890935.7,286046999.0,N
1623890955.6,286046998.4,N
1623890975.4,286046998.5,N
1623890995.2,286047000.5,N
1623891015.1,286047001.1,N
1623891016.0,286047001.1,N
1623891035.8,286046998.5,N
1623891055.7,286046996.5,N
1623891075.5,286046998.6,N
1623891095.3,286046999.0,N
1623891115.2,286046999.1,N
1623891135.9,286046999.1,N
1623891155.7,286046999.6,N
1623891175.6,286046996.7,N
1623891195.4,286046999.4,N
1623891215.3,286046999.5,N
1623891235.1,286046997.3,N
1623891236.0,286046997.3,N
1623891255.8,286046998.0,N
1623891275.7,286046995.0,Y
1623891295.5,286046996.9,P
1623891315.3,286046996.7,P
1623891335.2,286046995.2,P
1623891355.0,286046995.4,Y
1623891355.9,286046995.4,P
1623891375.8,286046998.2,N
1623891395.6,286046998.9,N
1623891415.4,286047000.0,N
1623891435.3,286047000.6,N
1623891455.1,286046998.7,N
1623891475.9,286046998.3,N
1623891495.7,286047001.0,N
1623891515.5,286046998.5,N
1623891535.4,286046999.2,N
1623891555.2,286046999.1,N
1623891575.0,286046997.1,N
1623891575.9,286046997.1,N
1623891595.8,286046996.9,N
